TimeHST,TemperatureF,Dew PointF,Humidity,Sea Level PressureIn,VisibilityMPH,Wind Direction,Wind SpeedMPH,Gust SpeedMPH,PrecipitationIn,Events,Conditions,WindDirDegrees,DateUTC
12:06 AM,75.2,69.8,83,30.02,6.2,East,9.2,18.4,N/A,,Scattered Clouds,80,2013-09-01 10:06:00
12:57 AM,75.2,69.1,81,30.00,10.0,East,9.2,-,N/A,,Overcast,90,2013-09-01 10:57:00
1:57 AM,75.2,68.0,78,29.99,10.0,East,6.9,-,N/A,,Mostly Cloudy,80,2013-09-01 11:57:00
2:57 AM,77.0,69.1,76,29.97,10.0,East,6.9,-,N/A,,Scattered Clouds,80,2013-09-01 12:57:00
3:57 AM,77.0,68.0,74,29.98,10.0,East,9.2,17.3,N/A,,Mostly Cloudy,80,2013-09-01 13:57:00
4:57 AM,77.0,64.9,66,29.98,10.0,East,10.4,19.6,N/A,,Partly Cloudy,80,2013-09-01 14:57:00
5:57 AM,77.0,64.0,64,30.00,10.0,East,11.5,20.7,N/A,,Clear,90,2013-09-01 15:57:00
6:57 AM,77.0,62.1,60,30.01,10.0,East,10.4,19.6,N/A,,Clear,80,2013-09-01 16:57:00
7:57 AM,79.9,63.0,56,30.02,10.0,East,6.9,-,N/A,,Partly Cloudy,90,2013-09-01 17:57:00
8:57 AM,79.9,64.9,60,30.03,10.0,East,9.2,17.3,N/A,,Clear,80,2013-09-01 18:57:00
9:57 AM,80.6,66.0,61,30.04,10.0,East,11.5,-,N/A,,Overcast,80,2013-09-01 19:57:00
10:57 AM,82.4,66.9,59,30.02,10.0,ENE,12.7,-,N/A,,Partly Cloudy,60,2013-09-01 20:57:00
11:57 AM,84.2,66.9,56,30.01,10.0,ENE,11.5,18.4,N/A,,Overcast,60,2013-09-01 21:57:00
12:57 PM,86.0,68.0,55,29.99,10.0,ENE,11.5,20.7,N/A,,Overcast,70,2013-09-01 22:57:00
1:57 PM,87.8,68.0,52,29.97,10.0,ENE,13.8,19.6,N/A,,Overcast,60,2013-09-01 23:57:00
2:36 PM,87.8,68.0,52,29.98,6.2,ENE,10.4,19.6,N/A,,Mostly Cloudy,60,2013-09-02 00:36:00
2:57 PM,87.8,68.0,52,29.96,10.0,NE,10.4,18.4,N/A,,Mostly Cloudy,40,2013-09-02 00:57:00
3:06 PM,-9999,-9999,N/A,29.97,6.2,NE,9.2,-,N/A,,Mostly Cloudy,50,2013-09-02 01:06:00
3:57 PM,84.2,70.0,62,29.95,10.0,East,13.8,20.7,N/A,,Overcast,80,2013-09-02 01:57:00
4:57 PM,82.4,68.0,62,29.96,10.0,East,9.2,21.9,N/A,,Mostly Cloudy,80,2013-09-02 02:57:00
5:57 PM,80.6,66.9,63,29.96,10.0,East,12.7,19.6,N/A,,Clear,80,2013-09-02 03:57:00
6:57 PM,78.8,66.9,67,29.98,10.0,East,10.4,-,N/A,,Scattered Clouds,80,2013-09-02 04:57:00
7:57 PM,75.2,66.9,75,29.99,10.0,ENE,11.5,17.3,N/A,,Scattered Clouds,70,2013-09-02 05:57:00
8:57 PM,73.4,66.9,80,30.01,10.0,East,5.8,16.1,N/A,,Scattered Clouds,100,2013-09-02 06:57:00
9:57 PM,73.4,66.0,78,30.02,10.0,East,11.5,19.6,N/A,,Scattered Clouds,80,2013-09-02 07:57:00
10:57 PM,73.4,66.9,80,30.02,10.0,ENE,6.9,17.3,N/A,,Partly Cloudy,70,2013-09-02 08:57:00
11:57 PM,-9999,-9999,N/A,30.02,10.0,East,11.5,18.4,N/A,,Mostly Cloudy,80,2013-09-02 09:57:00